Time,TemperatureF,DewpointF,PressureIn,WindDirection,WindDirectionDegrees,WindSpeedMPH,WindSpeedGustMPH,Humidity,HourlyPrecipIn,Conditions,Clouds,dailyrainin,SoftwareType,DateUTC
2013-05-20 00:15:00,79.9,68.4,29.46,South,180,13.0,-999.0,68,-99.99,,,0.00,Acu-Link.com,2013-05-20 05:15:00,
2013-05-20 00:30:00,79.7,68.2,29.46,East,90,5.8,-999.0,68,-99.99,,,0.00,Acu-Link.com,2013-05-20 05:30:00,
2013-05-20 00:45:00,79.2,67.7,29.46,SSW,202,6.3,-999.0,68,-99.99,,,0.00,Acu-Link.com,2013-05-20 05:45:00,
2013-05-20 01:00:00,78.8,67.7,29.45,SSE,157,11.4,-999.0,69,-99.99,,,0.00,Acu-Link.com,2013-05-20 06:00:00,
2013-05-20 01:16:00,78.3,68.1,29.46,ESE,112,7.3,-999.0,71,-99.99,,,0.00,Acu-Link.com,2013-05-20 06:16:00,
2013-05-20 01:31:00,77.7,68.3,29.45,SSW,202,4.7,-999.0,73,-99.99,,,0.00,Acu-Link.com,2013-05-20 06:31:00,
2013-05-20 01:46:00,77.2,68.6,29.45,WSW,247,7.8,-999.0,75,-99.99,,,0.00,Acu-Link.com,2013-05-20 06:46:00,
2013-05-20 02:01:00,76.8,69.0,29.44,SSE,157,7.8,-999.0,77,-99.99,,,0.00,Acu-Link.com,2013-05-20 07:01:00,
2013-05-20 02:16:00,76.1,68.7,29.45,SSE,157,6.8,-999.0,78,-99.99,,,0.00,Acu-Link.com,2013-05-20 07:16:00,
2013-05-20 02:32:00,75.7,69.1,29.44,South,180,7.8,-999.0,80,-99.99,,,0.00,Acu-Link.com,2013-05-20 07:32:00,
2013-05-20 02:47:00,75.6,69.0,29.44,ESE,112,4.7,-999.0,80,-99.99,,,0.00,Acu-Link.com,2013-05-20 07:47:00,
2013-05-20 03:02:00,75.4,69.2,29.44,SSE,157,7.3,-999.0,81,-99.99,,,0.00,Acu-Link.com,2013-05-20 08:02:00,
2013-05-20 03:17:00,75.4,69.2,29.44,South,180,8.3,-999.0,81,-99.99,,,0.00,Acu-Link.com,2013-05-20 08:17:00,
2013-05-20 03:32:00,75.2,69.0,29.44,South,180,8.3,-999.0,81,-99.99,,,0.00,Acu-Link.com,2013-05-20 08:32:00,
2013-05-20 03:47:00,74.8,68.9,29.45,South,180,4.2,-999.0,82,-99.99,,,0.00,Acu-Link.com,2013-05-20 08:47:00,
2013-05-20 04:03:00,75.0,69.1,29.45,SSE,157,8.3,-999.0,82,-99.99,,,0.00,Acu-Link.com,2013-05-20 09:03:00,
2013-05-20 04:18:00,75.0,69.1,29.44,SSE,157,8.3,-999.0,82,-99.99,,,0.00,Acu-Link.com,2013-05-20 09:18:00,
2013-05-20 04:33:00,75.0,69.1,29.44,South,180,4.7,-999.0,82,-99.99,,,0.00,Acu-Link.com,2013-05-20 09:33:00,
2013-05-20 04:48:00,75.0,69.1,29.44,South,180,5.3,-999.0,82,-99.99,,,0.00,Acu-Link.com,2013-05-20 09:48:00,
2013-05-20 05:03:00,75.0,69.1,29.45,SE,135,5.3,-999.0,82,-99.99,,,0.00,Acu-Link.com,2013-05-20 10:03:00,
2013-05-20 05:18:00,75.0,69.1,29.45,South,180,6.8,-999.0,82,-99.99,,,0.00,Acu-Link.com,2013-05-20 10:18:00,
2013-05-20 05:34:00,75.0,69.1,29.45,SSE,157,4.2,-999.0,82,-99.99,,,0.00,Acu-Link.com,2013-05-20 10:34:00,
2013-05-20 05:49:00,75.0,69.1,29.46,SSE,157,5.3,-999.0,82,-99.99,,,0.00,Acu-Link.com,2013-05-20 10:49:00,
2013-05-20 06:04:00,75.0,69.1,29.46,SSE,157,5.8,-999.0,82,-99.99,,,0.00,Acu-Link.com,2013-05-20 11:04:00,
2013-05-20 06:19:00,74.7,69.2,29.46,SSE,157,5.8,-999.0,83,-99.99,,,0.00,Acu-Link.com,2013-05-20 11:19:00,
2013-05-20 06:35:00,74.5,69.3,29.47,South,180,4.7,-999.0,84,-99.99,,,0.00,Acu-Link.com,2013-05-20 11:35:00,
2013-05-20 06:50:00,74.5,69.3,29.48,South,180,5.3,-999.0,84,-99.99,,,0.00,Acu-Link.com,2013-05-20 11:50:00,
2013-05-20 07:05:00,74.5,69.3,29.48,South,180,5.8,-999.0,84,-99.99,,,0.00,Acu-Link.com,2013-05-20 12:05:00,
2013-05-20 07:21:00,74.7,69.9,29.49,SSE,157,5.8,-999.0,85,-99.99,,,0.00,Acu-Link.com,2013-05-20 12:21:00,
2013-05-20 07:36:00,75.2,70.0,29.49,South,180,4.7,-999.0,84,-99.99,,,0.00,Acu-Link.com,2013-05-20 12:36:00,
2013-05-20 07:51:00,75.4,70.2,29.49,SE,135,3.2,-999.0,84,-99.99,,,0.00,Acu-Link.com,2013-05-20 12:51:00,
2013-05-20 08:07:00,75.9,70.0,29.49,SSE,157,6.8,-999.0,82,-99.99,,,0.00,Acu-Link.com,2013-05-20 13:07:00,
2013-05-20 08:22:00,76.6,70.3,29.50,SSE,157,3.2,-999.0,81,-99.99,,,0.00,Acu-Link.com,2013-05-20 13:22:00,
2013-05-20 08:37:00,77.0,70.3,29.50,SSE,157,5.8,-999.0,80,-99.99,,,0.00,Acu-Link.com,2013-05-20 13:37:00,
2013-05-20 08:52:00,78.1,70.7,29.50,SSE,157,5.3,-999.0,78,-99.99,,,0.00,Acu-Link.com,2013-05-20 13:52:00,
2013-05-20 09:07:00,78.1,70.3,29.50,SSE,157,6.3,-999.0,77,-99.99,,,0.00,Acu-Link.com,2013-05-20 14:07:00,
2013-05-20 09:23:00,78.8,71.0,29.51,SSE,157,2.7,-999.0,77,-99.99,,,0.00,Acu-Link.com,2013-05-20 14:23:00,
2013-05-20 09:38:00,79.3,70.3,29.50,South,180,4.7,-999.0,74,-99.99,,,0.00,Acu-Link.com,2013-05-20 14:38:00,
2013-05-20 09:53:00,81.1,71.2,29.50,SSE,157,7.8,-999.0,72,-99.99,,,0.00,Acu-Link.com,2013-05-20 14:53:00,
2013-05-20 10:08:00,81.5,70.7,29.50,SSE,157,6.3,-999.0,70,-99.99,,,0.00,Acu-Link.com,2013-05-20 15:08:00,
2013-05-20 10:23:00,82.2,70.6,29.49,South,180,5.3,-999.0,68,-99.99,,,0.00,Acu-Link.com,2013-05-20 15:23:00,
2013-05-20 10:39:00,84.0,71.8,29.49,South,180,4.7,-999.0,67,-99.99,,,0.00,Acu-Link.com,2013-05-20 15:39:00,
2013-05-20 10:54:00,84.2,71.6,29.49,SW,225,7.3,-999.0,66,-99.99,,,0.00,Acu-Link.com,2013-05-20 15:54:00,
2013-05-20 11:09:00,84.9,70.9,29.48,SSW,202,6.8,-999.0,63,-99.99,,,0.00,Acu-Link.com,2013-05-20 16:09:00,
2013-05-20 11:24:00,85.6,72.0,29.48,South,180,4.2,-999.0,64,-99.99,,,0.00,Acu-Link.com,2013-05-20 16:24:00,
2013-05-20 11:39:00,87.3,72.2,29.48,SSE,157,4.7,-999.0,61,-99.99,,,0.00,Acu-Link.com,2013-05-20 16:39:00,
2013-05-20 11:54:00,86.9,71.8,29.48,SW,225,6.3,-999.0,61,-99.99,,,0.00,Acu-Link.com,2013-05-20 16:54:00,
2013-05-20 12:10:00,87.4,71.8,29.48,West,270,3.7,-999.0,60,-99.99,,,0.00,Acu-Link.com,2013-05-20 17:10:00,
2013-05-20 12:25:00,87.4,71.3,29.47,SSE,157,6.3,-999.0,59,-99.99,,,0.00,Acu-Link.com,2013-05-20 17:25:00,
2013-05-20 12:40:00,89.1,72.4,29.46,East,90,5.3,-999.0,58,-99.99,,,0.00,Acu-Link.com,2013-05-20 17:40:00,
2013-05-20 12:55:00,89.6,72.3,29.45,South,180,6.8,-999.0,57,-99.99,,,0.00,Acu-Link.com,2013-05-20 17:55:00,
2013-05-20 13:10:00,91.0,73.1,29.45,SSE,157,5.8,-999.0,56,-99.99,,,0.00,Acu-Link.com,2013-05-20 18:10:00,
2013-05-20 13:25:00,90.7,72.3,29.45,West,270,3.7,-999.0,55,-99.99,,,0.00,Acu-Link.com,2013-05-20 18:25:00,
2013-05-20 13:40:00,91.6,72.6,29.44,South,180,4.7,-999.0,54,-99.99,,,0.00,Acu-Link.com,2013-05-20 18:40:00,
2013-05-20 13:56:00,92.1,72.5,29.44,ESE,112,5.3,-999.0,53,-99.99,,,0.00,Acu-Link.com,2013-05-20 18:56:00,
2013-05-20 14:11:00,92.1,73.0,29.43,East,90,9.9,-999.0,54,-99.99,,,0.00,Acu-Link.com,2013-05-20 19:11:00,
2013-05-20 14:27:00,92.5,72.3,29.42,South,180,7.8,-999.0,52,-99.99,,,0.00,Acu-Link.com,2013-05-20 19:27:00,
2013-05-20 14:42:00,92.1,72.5,29.42,SSE,157,9.4,-999.0,53,-99.99,,,0.00,Acu-Link.com,2013-05-20 19:42:00,
2013-05-20 14:57:00,91.4,72.9,29.41,SSE,157,6.3,-999.0,55,-99.99,,,0.00,Acu-Link.com,2013-05-20 19:57:00,
2013-05-20 15:12:00,91.4,72.4,29.40,South,180,8.9,-999.0,54,-99.99,,,0.00,Acu-Link.com,2013-05-20 20:12:00,
2013-05-20 15:27:00,90.7,72.3,29.39,South,180,8.3,-999.0,55,-99.99,,,0.00,Acu-Link.com,2013-05-20 20:27:00,
2013-05-20 15:42:00,91.8,72.7,29.37,South,180,6.8,-999.0,54,-99.99,,,0.00,Acu-Link.com,2013-05-20 20:42:00,
2013-05-20 15:57:00,91.9,72.3,29.36,South,180,7.8,-999.0,53,-99.99,,,0.00,Acu-Link.com,2013-05-20 20:57:00,
2013-05-20 16:12:00,92.3,72.7,29.35,ENE,67,8.3,-999.0,53,-99.99,,,0.00,Acu-Link.com,2013-05-20 21:12:00,
2013-05-20 16:28:00,91.8,72.7,29.35,SSW,202,3.7,-999.0,54,-99.99,,,0.00,Acu-Link.com,2013-05-20 21:28:00,
2013-05-20 16:43:00,92.5,72.8,29.34,SSW,202,6.8,-999.0,53,-99.99,,,0.00,Acu-Link.com,2013-05-20 21:43:00,
2013-05-20 16:58:00,91.6,72.6,29.36,SSW,202,7.3,-999.0,54,-99.99,,,0.00,Acu-Link.com,2013-05-20 21:58:00,
2013-05-20 17:14:00,91.0,72.6,29.35,SE,135,5.3,-999.0,55,-99.99,,,0.00,Acu-Link.com,2013-05-20 22:14:00,
2013-05-20 17:29:00,88.9,71.1,29.36,SW,225,2.7,-999.0,56,-99.99,,,0.00,Acu-Link.com,2013-05-20 22:29:00,
2013-05-20 17:44:00,87.8,70.6,29.34,SSE,157,3.7,-999.0,57,-99.99,,,0.00,Acu-Link.com,2013-05-20 22:44:00,
2013-05-20 17:59:00,87.3,70.2,29.36,SSW,202,5.8,-999.0,57,-99.99,,,0.00,Acu-Link.com,2013-05-20 22:59:00,
2013-05-20 18:14:00,87.1,70.5,29.36,NE,45,6.8,-999.0,58,-99.99,,,0.00,Acu-Link.com,2013-05-20 23:14:00,
2013-05-20 18:29:00,86.7,70.1,29.36,SSW,202,4.2,-999.0,58,-99.99,,,0.00,Acu-Link.com,2013-05-20 23:29:00,
2013-05-20 18:45:00,86.5,70.4,29.34,ESE,112,3.2,-999.0,59,-99.99,,,0.00,Acu-Link.com,2013-05-20 23:45:00,
2013-05-20 19:00:00,86.5,70.9,29.34,SSE,157,4.7,-999.0,60,-99.99,,,0.00,Acu-Link.com,2013-05-21 00:00:00,
2013-05-20 19:15:00,85.8,71.2,29.33,NNE,22,3.7,-999.0,62,-99.99,,,0.00,Acu-Link.com,2013-05-21 00:15:00,
2013-05-20 19:30:00,85.5,71.0,29.32,ESE,112,8.9,-999.0,62,-99.99,,,0.00,Acu-Link.com,2013-05-21 00:30:00,
2013-05-20 19:46:00,85.3,70.8,29.33,ESE,112,7.8,-999.0,62,-99.99,,,0.00,Acu-Link.com,2013-05-21 00:46:00,
2013-05-20 20:01:00,84.7,70.7,29.33,South,180,4.7,-999.0,63,-99.99,,,0.00,Acu-Link.com,2013-05-21 01:01:00,
2013-05-20 20:16:00,84.6,70.6,29.35,West,270,6.8,-999.0,63,-99.99,,,0.00,Acu-Link.com,2013-05-21 01:16:00,
2013-05-20 20:31:00,84.4,70.4,29.34,ENE,67,4.7,-999.0,63,-99.99,,,0.00,Acu-Link.com,2013-05-21 01:31:00,
2013-05-20 20:46:00,84.2,70.7,29.35,SE,135,3.7,-999.0,64,-99.99,,,0.00,Acu-Link.com,2013-05-21 01:46:00,
2013-05-20 21:01:00,83.8,70.8,29.36,SSE,157,4.7,-999.0,65,-99.99,,,0.00,Acu-Link.com,2013-05-21 02:01:00,
2013-05-20 21:16:00,83.8,70.8,29.38,NE,45,2.7,-999.0,65,-99.99,,,0.00,Acu-Link.com,2013-05-21 02:16:00,
2013-05-20 21:32:00,83.5,70.9,29.44,NNW,337,0.0,-999.0,66,-99.99,,,0.00,Acu-Link.com,2013-05-21 02:32:00,
2013-05-20 21:47:00,83.3,71.2,29.42,North,0,0.0,-999.0,67,-99.99,,,0.00,Acu-Link.com,2013-05-21 02:47:00,
2013-05-20 22:02:00,83.3,71.2,29.40,South,180,3.2,-999.0,67,-99.99,,,0.00,Acu-Link.com,2013-05-21 03:02:00,
2013-05-20 22:17:00,83.7,70.7,29.40,ESE,112,2.7,-999.0,65,-99.99,,,0.00,Acu-Link.com,2013-05-21 03:17:00,
2013-05-20 22:33:00,83.7,70.7,29.40,SSE,157,6.8,-999.0,65,-99.99,,,0.00,Acu-Link.com,2013-05-21 03:33:00,
2013-05-20 22:48:00,83.8,70.3,29.39,SW,225,5.3,-999.0,64,-99.99,,,0.00,Acu-Link.com,2013-05-21 03:48:00,
2013-05-20 23:03:00,83.3,70.3,29.39,South,180,2.7,-999.0,65,-99.99,,,0.00,Acu-Link.com,2013-05-21 04:03:00,
2013-05-20 23:18:00,82.9,69.9,29.39,SSW,202,7.3,-999.0,65,-99.99,,,0.00,Acu-Link.com,2013-05-21 04:18:00,
2013-05-20 23:33:00,83.7,70.2,29.40,South,180,11.4,-999.0,64,-99.99,,,0.00,Acu-Link.com,2013-05-21 04:33:00,
2013-05-20 23:48:00,82.4,70.8,29.37,SSE,157,7.8,-999.0,68,-99.99,,,0.00,Acu-Link.com,2013-05-21 04:48:00,